Previsão horária em Plonina

Hoje, 2 Março, Terça-feira

Tempo Temperatura Precipitação Vento Pressão Humidade
00:00 +2°C° 0 mm 0 m/s 732 mmHg 83%
01:00 +2°C° 0 mm 0 m/s 732 mmHg 82%
02:00 +2°C° 0 mm 0 m/s 731 mmHg 81%
03:00 +2°C° 0 mm 0 m/s 731 mmHg 80%
04:00 +2°C° 0 mm 0 m/s 731 mmHg 80%
05:00 +2°C° 0 mm 0 m/s 731 mmHg 79%
06:00 +2°C° 0 mm 0 m/s 731 mmHg 77%
07:00 +3°C° 0 mm 1 m/s 731 mmHg 76%
08:00 +5°C° 0 mm 1 m/s 731 mmHg 70%
09:00 +7°C° 0 mm 1 m/s 731 mmHg 64%
10:00 +9°C° 0 mm 1 m/s 732 mmHg 58%
11:00 +10°C° 0 mm 1 m/s 732 mmHg 55%
12:00 +11°C° 0 mm 1 m/s 732 mmHg 52%
13:00 +12°C° 0 mm 1 m/s 732 mmHg 48%
14:00 +12°C° 0 mm 1 m/s 731 mmHg 51%
15:00 +12°C° 0 mm 1 m/s 731 mmHg 53%
16:00 +11°C° 0 mm 0 m/s 731 mmHg 55%
17:00 +9°C° 0 mm 0 m/s 731 mmHg 61%
18:00 +7°C° 0 mm 0 m/s 731 mmHg 66%
19:00 +6°C° 0 mm 0 m/s 730 mmHg 72%
20:00 +5°C° 0 mm 0 m/s 730 mmHg 73%
21:00 +6°C° 0 mm 1 m/s 730 mmHg 73%
22:00 +6°C° 0 mm 1 m/s 730 mmHg 74%
23:00 +5°C° 0 mm 1 m/s 730 mmHg 74%

Amanhã, 3 Março, Quarta-feira

Tempo Temperatura Precipitação Vento Pressão Humidade
00:00 +5°C° 0 mm 1 m/s 730 mmHg 74%
01:00 +5°C° 0 mm 1 m/s 730 mmHg 74%
02:00 +4°C° 0 mm 1 m/s 730 mmHg 72%
03:00 +4°C° 0 mm 1 m/s 729 mmHg 71%
04:00 +4°C° 0 mm 1 m/s 729 mmHg 69%
05:00 +4°C° 0 mm 1 m/s 728 mmHg 68%
06:00 +4°C° 0 mm 1 m/s 728 mmHg 67%
07:00 +3°C° 0 mm 1 m/s 728 mmHg 66%
08:00 +5°C° 0 mm 1 m/s 728 mmHg 62%
09:00 +7°C° 0 mm 1 m/s 728 mmHg 58%
10:00 +9°C° 0 mm 1 m/s 728 mmHg 54%
11:00 +10°C° 0 mm 1 m/s 728 mmHg 51%
12:00 +11°C° 0 mm 1 m/s 728 mmHg 48%
13:00 +12°C° 0 mm 1 m/s 727 mmHg 46%
14:00 +12°C° 0 mm 2 m/s 727 mmHg 49%
15:00 +10°C° 0 mm 2 m/s 726 mmHg 52%
16:00 +10°C° 0 mm 2 m/s 725 mmHg 55%
17:00 +8°C° 0 mm 2 m/s 725 mmHg 61%
18:00 +7°C° 0 mm 2 m/s 724 mmHg 67%
19:00 +5°C° 0 mm 2 m/s 724 mmHg 73%
20:00 +5°C° 0 mm 2 m/s 724 mmHg 73%
21:00 +5°C° 0 mm 2 m/s 723 mmHg 72%
22:00 +4°C° 0 mm 2 m/s 723 mmHg 72%
23:00 +4°C° 0 mm 2 m/s 723 mmHg 73%

Depois de amanhã, 4 Março, Quinta-feira

Tempo Temperatura Precipitação Vento Pressão Humidade
00:00 +4°C° 0 mm 2 m/s 722 mmHg 75%
01:00 +3°C° 0 mm 3 m/s 722 mmHg 76%
02:00 +3°C° 0 mm 3 m/s 721 mmHg 78%
03:00 +3°C° 0 mm 3 m/s 721 mmHg 79%
04:00 +3°C° 0 mm 3 m/s 720 mmHg 81%
05:00 +3°C° 0 mm 2 m/s 720 mmHg 82%
06:00 +3°C° 0 mm 2 m/s 720 mmHg 84%
07:00 +3°C° 0 mm 2 m/s 719 mmHg 85%
08:00 +4°C° 0 mm 3 m/s 719 mmHg 81%
09:00 +5°C° 0 mm 3 m/s 719 mmHg 77%
10:00 +7°C° 0 mm 4 m/s 719 mmHg 74%
11:00 +7°C° 0 mm 4 m/s 718 mmHg 71%
12:00 +8°C° 0 mm 4 m/s 718 mmHg 69%
13:00 +10°C° 0 mm 4 m/s 718 mmHg 67%
14:00 +8°C° 0.1 mm 4 m/s 717 mmHg 70%
15:00 +7°C° 0.1 mm 4 m/s 716 mmHg 74%
16:00 +7°C° 0.1 mm 4 m/s 716 mmHg 77%
17:00 +7°C° 0.4 mm 3 m/s 716 mmHg 81%
18:00 +5°C° 0.4 mm 3 m/s 715 mmHg 85%
19:00 +6°C° 0.4 mm 2 m/s 715 mmHg 89%
20:00 +4°C° 0.5 mm 3 m/s 715 mmHg 89%
21:00 +3°C° 0.5 mm 3 m/s 715 mmHg 88%
22:00 +3°C° 0.5 mm 3 m/s 715 mmHg 88%
23:00 +2°C° 0.2 mm 3 m/s 715 mmHg 90%

5 Março, Sexta-feira

Tempo Temperatura Precipitação Vento Pressão Humidade
00:00 +2°C° 0.2 mm 3 m/s 715 mmHg 92%
01:00 +2°C° 0.2 mm 2 m/s 715 mmHg 94%
02:00 +1°C° 0.4 mm 3 m/s 715 mmHg 94%
03:00 +1°C° 0.4 mm 3 m/s 716 mmHg 95%
04:00 0°C° 0.4 mm 3 m/s 716 mmHg 96%
05:00 -2°C° 0.8 mm 4 m/s 716 mmHg 95%
06:00 -3°C° 0.8 mm 4 m/s 717 mmHg 95%
07:00 -5°C° 0.8 mm 5 m/s 717 mmHg 94%
08:00 -5°C° 0.4 mm 5 m/s 718 mmHg 90%
09:00 -5°C° 0.4 mm 5 m/s 719 mmHg 86%
10:00 -5°C° 0.4 mm 5 m/s 719 mmHg 82%
11:00 -4°C° 0.1 mm 5 m/s 720 mmHg 75%
12:00 -4°C° 0.1 mm 5 m/s 720 mmHg 68%
13:00 -2°C° 0.1 mm 5 m/s 721 mmHg 61%
14:00 -2°C° 0.1 mm 5 m/s 721 mmHg 61%
15:00 -2°C° 0.1 mm 5 m/s 721 mmHg 60%
16:00 -2°C° 0.1 mm 4 m/s 722 mmHg 60%
17:00 -3°C° 0.1 mm 4 m/s 722 mmHg 65%
18:00 -4°C° 0.1 mm 3 m/s 723 mmHg 69%
19:00 -4°C° 0.1 mm 3 m/s 723 mmHg 74%
20:00 -5°C° 0 mm 3 m/s 724 mmHg 75%
21:00 -5°C° 0 mm 3 m/s 724 mmHg 77%
22:00 -6°C° 0 mm 3 m/s 725 mmHg 78%
23:00 -6°C° 0 mm 3 m/s 725 mmHg 80%

6 Março, Sábado

Tempo Temperatura Precipitação Vento Pressão Humidade
00:00 -6°C° 0 mm 3 m/s 726 mmHg 82%
01:00 -6°C° 0 mm 2 m/s 726 mmHg 84%
02:00 -6°C° 0 mm 2 m/s 726 mmHg 83%
03:00 -6°C° 0 mm 2 m/s 727 mmHg 82%
04:00 -6°C° 0 mm 2 m/s 727 mmHg 81%
05:00 -6°C° 0 mm 2 m/s 727 mmHg 80%
06:00 -6°C° 0 mm 2 m/s 728 mmHg 78%
07:00 -6°C° 0 mm 2 m/s 728 mmHg 77%
08:00 -6°C° 0 mm 3 m/s 728 mmHg 72%
09:00 -4°C° 0 mm 3 m/s 729 mmHg 66%
10:00 -3°C° 0 mm 4 m/s 729 mmHg 61%
11:00 -3°C° 0 mm 4 m/s 729 mmHg 56%
12:00 -1°C° 0 mm 3 m/s 729 mmHg 52%
13:00 0°C° 0 mm 3 m/s 729 mmHg 48%
14:00 0°C° 0 mm 3 m/s 729 mmHg 47%
15:00 0°C° 0 mm 3 m/s 729 mmHg 47%
16:00 0°C° 0 mm 3 m/s 729 mmHg 46%
17:00 -1°C° 0 mm 3 m/s 729 mmHg 52%
18:00 -3°C° 0 mm 2 m/s 729 mmHg 58%
19:00 -4°C° 0 mm 2 m/s 729 mmHg 64%
20:00 -4°C° 0 mm 2 m/s 729 mmHg 64%
21:00 -4°C° 0 mm 2 m/s 729 mmHg 64%
22:00 -5°C° 0 mm 3 m/s 729 mmHg 64%
23:00 -5°C° 0 mm 3 m/s 729 mmHg 64%

7 Março, Domingo

Tempo Temperatura Precipitação Vento Pressão Humidade
00:00 -5°C° 0 mm 3 m/s 729 mmHg 64%
01:00 -5°C° 0 mm 3 m/s 729 mmHg 64%
02:00 -5°C° 0 mm 3 m/s 728 mmHg 67%
03:00 -5°C° 0 mm 3 m/s 728 mmHg 69%
04:00 -5°C° 0 mm 3 m/s 728 mmHg 71%
05:00 -5°C° 0 mm 3 m/s 728 mmHg 73%
06:00 -5°C° 0 mm 3 m/s 727 mmHg 76%
07:00 -5°C° 0 mm 3 m/s 727 mmHg 78%
08:00 -3°C° 0 mm 4 m/s 727 mmHg 75%
09:00 -2°C° 0 mm 4 m/s 727 mmHg 71%
10:00 -1°C° 0 mm 5 m/s 727 mmHg 68%
11:00 0°C° 0 mm 5 m/s 726 mmHg 65%
12:00 0°C° 0 mm 5 m/s 726 mmHg 63%
13:00 +1°C° 0 mm 5 m/s 726 mmHg 60%
14:00 +1°C° 0 mm 5 m/s 725 mmHg 60%
15:00 +1°C° 0 mm 5 m/s 724 mmHg 60%
16:00 +1°C° 0 mm 5 m/s 724 mmHg 60%
17:00 0°C° 0 mm 4 m/s 723 mmHg 66%
18:00 -2°C° 0 mm 4 m/s 723 mmHg 73%
19:00 -2°C° 0 mm 3 m/s 722 mmHg 79%
20:00 -2°C° 0 mm 3 m/s 722 mmHg 80%
21:00 -3°C° 0 mm 4 m/s 722 mmHg 80%
22:00 -3°C° 0 mm 4 m/s 722 mmHg 81%
23:00 -3°C° 0 mm 4 m/s 721 mmHg 82%
Mostrar mais

Necessitamos do seu Consentimento

A Meteoprog e os seus Fornecedores de Serviços podem armazenar e aceder a dados pessoais como cookies, identificadores do dispositivo ou outras tecnologias semelhantes existentes no seu dispositivo e processar estes dados para personalizar conteúdos e anúncios, assim como funcionalidades nas redes sociais e análise de tráfego.

  • Armazenar e/ou aceder a informações no seu dispositivo

    Os cookies, identificadores do dispositivo ou outras informações podem ser armazenados ou acedidos no seu dispositivo, para os fins acima indicados.

  • Anúncios e conteúdos personalizados, medição de anúncios e conteúdos, dados sobre o público-alvo e desenvolvimento de produtos

    Os anúncios e os conteúdos podem ser personalizados com base num perfil. Podem ser adicionados dados adicionais para uma maior personalização dos anúncios e dos conteúdos. A eficácia dos anúncios e dos conteúdos pode ser medida. Podem ser obtidas informações sobre o público que visualizou os anúncios e os conteúdos. Estes dados podem ser usados para desenvolver ou melhorar sistemas, softwares ou a experiência do utilizador.

Ao clicar em "Eu concordo”, permitirá o uso de cookies, identificadores do dispositivo e web beacons mencionados ou outras tecnologias semelhantes. As configurações do navegador do seu dispositivo podem ser alteradas.

Para certos fins, podem ser invocados interesses legítimos ao invés de consentimento. Pode ler mais informação sobre este assunto na nossa Política de Privacidade e Cookies.